Baton Rouge, LA

11:50 AM CST on February 13, 2016 (GMT -0600)
Baton Rouge Metro-Ryan

Weather History for KBTR - September, 2013

Change the Weather History Date:

Saturday, September 14, 2013

  Actual Average Record
Temperature  
Mean Temperature 82 °F 79 °F  
Max Temperature 91 °F 89 °F 100 °F (1921)
Min Temperature 72 °F 69 °F 47 °F (1902)
Degree Days  
Heating Degree Days 0 0  
Month to date heating degree days 0 0  
Since 1 July heating degree days 0 0  
Cooling Degree Days 17 14  
Month to date cooling degree days 250 220  
Year to date cooling degree days 2218 2381  
Growing Degree Days 31 (Base 50)    
Moisture  
Dew Point 70 °F    
Average Humidity 71    
Maximum Humidity 94    
Minimum Humidity 47    
Precipitation  
Precipitation 0.00 in 0.15 in 3.00 in (1926)
Month to date precipitation 1.88 2.26  
Year to date precipitation 54.54 43.97  
Snow  
Snow 0.00 in - - ()
Month to date snowfall 0.0  
Since 1 July snowfall 0.0  
Since 1 September snowfall 0.0  
Snow Depth 0.00 in    
Sea Level Pressure  
Sea Level Pressure 29.92 in    
Wind  
Wind Speed 4 mph (ENE)    
Max Wind Speed 15 mph    
Max Gust Speed 22 mph    
Visibility 10 miles    
Events      
T = Trace of Precipitation, MM = Missing Value Source: NWS Daily Summary

Daily Weather History Graph

Daily Weather History Graph

Search for Another Location

Airport or City:

Trip Planner

Search our weather history database for the weather conditions in past years. The results will help you decide how hot, cold, wet, or windy it might be!

Date:

Astronomy

Sep. 14, 2013 Rise Set
Actual Time 6:48 AM CDT 7:11 PM CDT
Civil Twilight 6:24 AM CDT 7:35 PM CDT
Nautical Twilight 5:56 AM CDT 8:03 PM CDT
Astronomical Twilight 5:27 AM CDT 8:31 PM CDT
Moon 3:37 PM CDT (9/14) 1:37 AM CDT (9/14)
Length of Visible Light 13h 10m
Length of Day
12h 22m
Waxing Gibbous, 72% of the Moon is Illuminated
Sep 14
Waxing Gibbous
Sep 19
Full
Sep 26
Last Quarter
Oct 4
New
Oct 11
First Quarter

Hourly Weather History & Observations

Time (CDT) Temp. Heat Index Dew Point Humidity Pressure Visibility Wind Dir Wind Speed Gust Speed Precip Events Conditions
12:53 AM 73.9 °F - 72.0 °F 93% 29.89 in 10.0 mi Calm Calm - N/A   Mostly Cloudy
1:53 AM 73.0 °F - 72.0 °F 96% 29.89 in 7.0 mi Calm Calm - N/A   Clear
2:53 AM 73.9 °F - 72.0 °F 93% 29.89 in 9.0 mi Calm Calm - N/A   Overcast
3:53 AM 73.0 °F - 72.0 °F 96% 29.88 in 8.0 mi Calm Calm - N/A   Clear
4:53 AM 73.0 °F - 71.1 °F 93% 29.88 in 9.0 mi NNE 3.5 mph - N/A   Clear
5:53 AM 73.0 °F - 70.0 °F 90% 29.89 in 10.0 mi NNE 5.8 mph - N/A   Clear
6:53 AM 72.0 °F - 69.1 °F 91% 29.91 in 10.0 mi NE 4.6 mph - N/A   Clear
7:53 AM 73.0 °F - 69.1 °F 87% 29.93 in 10.0 mi NE 5.8 mph - N/A   Clear
8:53 AM 75.0 °F - 66.9 °F 76% 29.94 in 10.0 mi ENE 8.1 mph - N/A   Clear
9:53 AM 79.0 °F - 66.9 °F 66% 29.95 in 10.0 mi ENE 5.8 mph - N/A   Clear
10:53 AM 81.0 °F 83.3 °F 66.9 °F 62% 29.96 in 10.0 mi East 5.8 mph 21.9 mph N/A   Clear
11:53 AM 84.9 °F 88.2 °F 68.0 °F 57% 29.96 in 10.0 mi ENE 8.1 mph - N/A   Clear
12:53 PM 87.1 °F 91.3 °F 69.1 °F 55% 29.94 in 10.0 mi Variable 5.8 mph - N/A   Clear
1:53 PM 88.0 °F 92.9 °F 70.0 °F 55% 29.92 in 10.0 mi East 5.8 mph - N/A   Partly Cloudy
2:53 PM 89.1 °F 92.9 °F 68.0 °F 50% 29.90 in 10.0 mi East 4.6 mph - N/A   Scattered Clouds
3:53 PM 90.0 °F 92.8 °F 66.9 °F 46% 29.88 in 10.0 mi Variable 5.8 mph - N/A   Scattered Clouds
4:53 PM 89.1 °F 92.9 °F 68.0 °F 50% 29.88 in 10.0 mi East 5.8 mph - N/A   Partly Cloudy
5:53 PM 87.1 °F 89.9 °F 66.9 °F 51% 29.90 in 10.0 mi ENE 4.6 mph - N/A   Scattered Clouds
6:53 PM 84.0 °F 87.8 °F 69.1 °F 61% 29.91 in 10.0 mi East 5.8 mph - N/A   Scattered Clouds
7:53 PM 82.0 °F 85.5 °F 69.1 °F 65% 29.93 in 10.0 mi East 4.6 mph - N/A   Overcast
8:53 PM 80.1 °F 83.6 °F 71.1 °F 74% 29.95 in 10.0 mi ESE 3.5 mph - N/A   Clear
9:53 PM 77.0 °F - 72.0 °F 84% 29.97 in 10.0 mi Calm Calm - N/A   Clear
10:53 PM 75.9 °F - 73.0 °F 91% 29.98 in 10.0 mi NW 3.5 mph - N/A   Mostly Cloudy
11:53 PM 75.0 °F - 72.0 °F 90% 29.97 in 8.0 mi Calm Calm - N/A   Clear